FW8857 Weather Reports


time (UTC)temp
F
wind
direction
speed
knots
gust
knots
rain 1hr
in
rain 24hr
in
rain mn
in
humidity
%
barometer
mb
20260503195646 82 26 3.5 7.8 0.00 0.00 0.00 44 1010.0
20260503195144 81 329 4.3 7.8 0.00 0.00 0.00 46 1010.0
20260503194644 81 349 4.3 7.8 0.00 0.00 0.00 46 1010.1
20260503194143 81 323 3.5 7.0 0.00 0.00 0.00 46 1010.1
20260503193644 80 57 3.5 7.8 0.00 0.00 0.00 46 1010.2
20260503193408 79 263 3.5 7.8 0.00 0.00 0.00 49 1010.3
20260503192640 79 28 3.5 7.0 0.00 0.00 0.00 49 1010.4
20260503192630 79 299 2.6 6.1 0.00 0.00 0.00 48 1010.4
20260503191641 78 37 2.6 6.1 0.00 0.00 0.00 50 1010.4
20260503191140 78 315 3.5 7.0 0.00 0.00 0.00 51 1010.5
20260503190641 77 5 3.5 7.0 0.00 0.00 0.00 52 1010.6
20260503190140 77 302 3.5 7.0 0.00 0.00 0.00 52 1010.6
20260503185641 77 3 3.5 6.1 0.00 0.00 0.00 52 1010.7
20260503185141 76 324 2.6 6.1 0.00 0.00 0.00 53 1010.8
20260503184641 76 292 3.5 6.1 0.00 0.00 0.00 53 1010.8
20260503184141 75 10 3.5 6.1 0.00 0.00 0.00 54 1010.9
20260503183906 75 345 3.5 6.1 0.00 0.00 0.00 53 1010.9
20260503183141 74 40 2.6 6.1 0.00 0.00 0.00 54 1011.0
20260503182903 74 316 3.5 7.8 0.00 0.00 0.00 54 1011.1
20260503182135 74 323 3.5 7.8 0.00 0.00 0.00 54 1011.1
20260503181636 73 350 3.5 7.0 0.00 0.00 0.00 53 1011.1
20260503181136 73 329 3.5 7.8 0.00 0.00 0.00 55 1011.2
20260503180636 72 334 3.5 7.8 0.00 0.00 0.00 57 1011.3
20260503180136 72 325 3.5 7.8 0.00 0.00 0.00 60 1011.3
20260503175907 71 287 3.5 7.8 0.00 0.00 0.00 60 1011.4
20260503175136 71 46 4.3 7.8 0.00 0.00 0.00 61 1011.4
20260503175128 71 331 3.5 7.8 0.00 0.00 0.00 60 1011.4
20260503174136 70 350 3.5 7.0 0.00 0.00 0.00 62 1011.5
20260503173636 70 311 3.5 6.1 0.00 0.00 0.00 64 1011.5
20260503173402 69 290 3.5 6.1 0.00 0.00 0.00 65 1011.6
20260503172636 68 345 3.5 7.0 0.00 0.00 0.00 67 1011.6
20260503172137 68 323 3.5 7.0 0.00 0.00 0.00 68 1011.7
20260503171637 68 339 3.5 7.0 0.00 0.00 0.00 68 1011.7
20260503171134 67 308 4.3 8.7 0.00 0.00 0.00 69 1011.7
20260503170634 67 331 4.3 8.7 0.00 0.00 0.00 69 1011.7
20260503170359 67 355 4.3 10.4 0.00 0.00 0.00 70 1011.8
20260503160128 65 30 0.9 2.6 0.00 0.00 0.00 69 1012.1
20260503150852 61 1 1.7 2.6 0.00 0.00 0.00 82 1012.2
20260503150129 60 17 1.7 1.7 0.00 0.00 0.00 84 1012.2
20260503140128 55 330 0.0 0.9 0.00 0.00 0.00 98 1012.0
20260503131352 52 283 0.9 2.6 0.00 0.00 0.00 99 1011.7
20260503130622 52 0 0.9 2.6 0.00 0.00 0.00 99 1011.7
20260503130353 52 251 0.9 2.6 0.00 0.00 0.00 99 1011.6
20260503120118 53 0 0.0 0.9 0.00 0.00 0.00 99 1011.8
20260503110616 53 183 0.0 1.7 0.00 0.00 0.00 98 1011.9
20260503110115 53 283 0.0 1.7 0.00 0.00 0.00 98 1012.0
20260503100110 55 344 0.0 1.7 0.00 0.00 0.00 96 1012.0
20260503090106 56 207 1.7 2.6 0.00 0.00 0.00 93 1012.3
20260503081606 57 140 0.0 1.7 0.00 0.02 0.00 92 1012.3
20260503081107 57 151 0.0 1.7 0.00 0.02 0.00 91 1012.2
20260503080607 58 0 0.0 0.9 0.00 0.02 0.00 90 1012.2
20260503080106 58 310 0.9 1.7 0.00 0.02 0.00 89 1012.2
20260503072607 58 0 0.0 0.9 0.00 0.02 0.00 90 1012.3
20260503072332 58 0 0.0 1.7 0.00 0.02 0.00 90 1012.3
20260503071606 58 291 0.0 1.7 0.00 0.02 0.00 89 1012.3
20260503071337 58 278 0.0 1.7 0.00 0.02 0.00 89 1012.4
20260503070607 58 306 0.0 1.7 0.00 0.02 0.00 89 1012.4
20260503070106 59 0 0.9 1.7 0.00 0.02 0.00 88 1012.3
20260503055059 61 190 1.7 2.6 0.00 0.02 0.02 84 1012.2
20260503054558 61 0 1.7 2.6 0.00 0.02 0.02 83 1012.0
20260503054100 62 270 0.9 2.6 0.00 0.02 0.02 82 1012.0
20260503053559 62 279 0.9 2.6 0.00 0.02 0.02 81 1012.0
20260503053100 62 235 0.9 2.6 0.00 0.02 0.02 81 1011.9
20260503052600 62 323 0.9 2.6 0.00 0.02 0.02 81 1012.0
20260503052100 62 0 0.9 2.6 0.00 0.02 0.02 80 1012.1
20260503051556 62 310 1.7 2.6 0.00 0.02 0.02 80 1012.1
20260503051057 62 309 1.7 2.6 0.00 0.02 0.02 80 1012.2
20260503050556 62 293 1.7 2.6 0.00 0.02 0.02 79 1012.2
20260503050057 63 349 0.9 2.6 0.00 0.02 0.02 79 1012.3
20260503045557 63 273 0.9 1.7 0.00 0.02 0.02 79 1012.4
20260503045058 63 197 0.9 1.7 0.00 0.02 0.02 79 1012.5
20260503044557 63 269 0.9 1.7 0.00 0.02 0.02 78 1012.4
20260503044544 64 323 0.0 1.7 0.00 0.02 0.02 77 1012.4
20260503043557 64 0 0.0 1.7 0.00 0.02 0.02 77 1012.5
20260503043550 64 0 0.0 1.7 0.00 0.02 0.02 76 1012.6
20260503042555 64 288 0.9 1.7 0.00 0.02 0.02 76 1012.5
20260503042055 64 90 0.9 1.7 0.00 0.02 0.02 76 1012.4
20260503041555 64 49 0.9 1.7 0.00 0.02 0.02 75 1012.4
20260503041055 64 42 0.0 1.7 0.00 0.02 0.02 75 1012.3
20260503040555 64 31 0.0 1.7 0.00 0.02 0.02 74 1012.3
20260503040054 64 0 0.0 1.7 0.00 0.02 0.02 74 1012.3
20260503035555 65 0 0.0 1.7 0.00 0.02 0.02 73 1012.3
20260503035055 65 11 0.9 2.6 0.00 0.02 0.02 73 1012.2
20260503034555 65 136 0.9 4.3 0.00 0.02 0.02 73 1012.3
20260503034055 65 95 1.7 4.3 0.00 0.02 0.02 72 1012.3
20260503033825 65 45 0.9 1.7 0.00 0.02 0.02 72 1012.3
20260503033054 65 85 0.9 2.6 0.00 0.02 0.02 72 1012.1
20260503032555 65 15 1.7 3.5 0.00 0.02 0.02 72 1012.1
20260503032055 65 35 0.9 3.5 0.00 0.02 0.02 72 1012.2
20260503031556 65 142 1.7 5.2 0.00 0.02 0.02 72 1012.1
20260503031055 65 216 2.6 7.0 0.00 0.02 0.02 71 1011.9
20260503030555 66 203 2.6 7.0 0.00 0.02 0.02 71 1011.9
20260503030052 66 213 2.6 7.0 0.00 0.02 0.02 71 1011.9
20260503025553 66 252 3.5 8.7 0.00 0.02 0.02 71 1011.8
20260503025053 66 254 4.3 8.7 0.00 0.02 0.02 70 1011.9
20260503024553 66 266 5.2 9.6 0.00 0.02 0.02 70 1011.9
20260503024053 67 211 5.2 12.2 0.00 0.02 0.02 70 1011.7
20260503023552 67 207 5.2 12.2 0.00 0.02 0.02 69 1011.7
20260503023053 68 223 5.2 11.3 0.00 0.02 0.02 68 1011.7
20260503022553 70 209 5.2 11.3 0.00 0.02 0.02 66 1011.7
20260503022053 71 216 4.3 10.4 0.00 0.02 0.02 64 1011.6
20260503021553 72 165 4.3 9.6 0.00 0.02 0.02 61 1011.7
20260503021053 72 221 3.5 8.7 0.00 0.02 0.02 60 1011.6
20260503020553 72 291 2.6 5.2 0.00 0.02 0.02 60 1011.4
20260503020054 72 216 1.7 4.3 0.00 0.02 0.02 60 1011.1
20260503015821 72 184 1.7 4.3 0.00 0.02 0.02 60 1011.1
20260503015319 72 289 1.7 4.3 0.00 0.02 0.02 60 1011.0
20260503014551 72 212 0.9 4.3 0.00 0.02 0.02 59 1011.0
20260503014051 72 299 0.9 1.7 0.00 0.02 0.02 59 1010.9
20260503013551 72 130 0.9 3.5 0.00 0.02 0.02 59 1011.0
20260503013051 72 194 1.7 3.5 0.00 0.02 0.02 59 1011.0
20260503012552 72 210 1.7 3.5 0.00 0.02 0.02 59 1011.0
20260503012254 72 203 1.7 3.5 0.00 0.02 0.02 59 1010.9
20260503011051 72 288 0.9 2.6 0.00 0.02 0.02 59 1010.9
20260503010551 73 0 0.9 2.6 0.00 0.02 0.02 58 1010.9
20260503010051 73 0 1.7 4.3 0.00 0.02 0.02 58 1010.9
20260503005552 73 274 1.7 4.3 0.00 0.02 0.02 58 1010.9
20260503005051 73 277 1.7 4.3 0.00 0.02 0.02 57 1011.0
20260503004549 73 313 0.9 4.3 0.00 0.02 0.02 57 1011.0
20260503004049 73 11 1.7 5.2 0.00 0.02 0.02 56 1011.0
20260503003549 73 0 2.6 5.2 0.00 0.02 0.02 57 1011.0
20260503003046 73 301 1.7 5.2 0.00 0.02 0.02 56 1011.0
20260503002809 73 349 1.7 6.1 0.00 0.02 0.02 56 1011.0
20260503002049 72 0 2.6 6.1 0.00 0.02 0.02 57 1011.0
20260503001547 72 295 3.5 6.1 0.00 0.02 0.02 57 1011.0
20260503001047 72 307 3.5 6.1 0.00 0.02 0.02 57 1011.1
20260503000547 72 281 1.7 5.2 0.00 0.02 0.02 57 1011.1
20260503000050 72 284 1.7 7.0 0.00 0.02 0.02 56 1011.1
20260502235547 71 339 3.5 7.8 0.00 0.02 0.02 59 1011.2
20260502235046 71 245 3.5 7.8 0.00 0.02 0.02 58 1011.2
20260502234547 71 264 3.5 7.0 0.00 0.02 0.02 58 1011.2
20260502234530 71 285 2.6 7.8 0.00 0.02 0.02 57 1011.3
20260502233543 71 290 2.6 7.8 0.00 0.02 0.02 57 1011.4
20260502233041 71 262 3.5 8.7 0.00 0.02 0.02 58 1011.5
20260502232537 71 345 3.5 8.7 0.00 0.02 0.02 59 1011.5
20260502232037 71 276 2.6 5.2 0.00 0.02 0.02 59 1011.5
20260502231538 71 300 2.6 6.1 0.00 0.02 0.02 58 1011.6
20260502231038 70 20 3.5 7.8 0.00 0.02 0.02 59 1011.6
20260502230535 70 318 2.6 7.8 0.00 0.02 0.02 60 1011.7
20260502230034 69 215 2.6 7.0 0.00 0.02 0.02 60 1011.8
20260502225535 69 295 2.6 7.0 0.00 0.02 0.02 61 1011.8
20260502225035 69 294 2.6 6.1 0.00 0.02 0.02 60 1012.0
20260502224535 69 326 3.5 7.8 0.00 0.02 0.02 61 1012.0
20260502224035 69 286 2.6 7.8 0.00 0.02 0.02 60 1012.2
20260502223536 69 272 2.6 6.1 0.00 0.02 0.02 60 1012.2
20260502223035 68 279 3.5 6.1 0.00 0.02 0.02 61 1012.3
20260502222758 68 340 3.5 7.8 0.00 0.02 0.02 61 1012.4
20260502222035 67 2 3.5 7.8 0.00 0.02 0.02 63 1012.5
20260502221533 67 334 3.5 7.8 0.00 0.02 0.02 62 1012.6
20260502221033 67 298 3.5 7.8 0.00 0.02 0.02 63 1012.7
20260502220533 67 290 3.5 7.0 0.00 0.02 0.02 62 1012.8
20260502220256 66 359 3.5 7.0 0.00 0.02 0.02 64 1012.9
20260502220019 66 323 3.5 7.0 0.00 0.02 0.02 64 1012.9
20260502215033 66 265 3.5 7.0 0.00 0.02 0.02 65 1012.9
20260502214534 66 8 3.5 7.0 0.00 0.02 0.02 65 1013.0
20260502214033 65 343 2.6 7.0 0.00 0.02 0.02 66 1013.1
20260502213759 65 301 1.7 7.8 0.00 0.02 0.02 65 1013.2
20260502213034 65 317 2.6 7.8 0.00 0.02 0.02 65 1013.2
20260502212534 65 13 3.5 7.0 0.00 0.02 0.02 65 1013.4
20260502212031 65 288 3.5 7.8 0.00 0.02 0.02 66 1013.4
20260502211530 65 274 3.5 7.8 0.00 0.02 0.02 66 1013.4
20260502211032 65 18 4.3 7.8 0.00 0.02 0.02 66 1013.5
20260502210531 65 9 4.3 7.0 0.00 0.02 0.02 66 1013.5
20260502210031 65 23 3.5 7.8 0.00 0.02 0.02 67 1013.6
20260502205753 65 355 1.7 7.8 0.00 0.02 0.02 65 1013.8
20260502205030 64 267 1.7 6.1 0.00 0.02 0.02 67 1014.0
20260502204531 63 92 3.5 7.8 0.00 0.02 0.02 69 1014.1
20260502204259 62 331 4.3 7.8 0.00 0.02 0.02 69 1014.1
20260502203530 62 348 4.3 7.8 0.00 0.02 0.02 70 1014.2
20260502203031 62 355 5.2 8.7 0.00 0.02 0.02 70 1014.1
20260502202755 62 339 4.3 8.7 0.00 0.02 0.02 70 1014.1
20260502202031 63 342 3.5 7.0 0.00 0.02 0.02 69 1014.2
20260502201531 62 265 3.5 7.0 0.00 0.02 0.02 70 1014.2
20260502201032 62 268 3.5 6.1 0.00 0.02 0.02 70 1014.4
20260502200529 62 306 3.5 7.0 0.00 0.02 0.02 70 1014.4
20260502200028 61 303 4.3 9.6 0.00 0.02 0.02 71 1014.4